sat.trackr.live / text

‹ back to catalog

ONEWEB-0540

NORAD 54645 · 2022-166D

PAYLOAD ACTIVE UNKNOWN

§ Identity

Operator
Country
UK
Launch date
2022-12-08
Launch site
AFETR
Launch vehicle
Mass (kg)
RCS (m²)

Purposes: comms

External: N2YO · Heavens-Above · Gunter

§ Orbital elements

Epoch: 2026-05-25T05:03:06.303168Z

Period
108.94 min
Inclination
87.9252°
Eccentricity
0.0002078
Mean motion
13.21825642 rev/d
Perigee alt
1,176.2 km
Apogee alt
1,179.3 km
Semi-major
7,555.9 km
B*
1.7659e-5
RAAN
248.5733°
Arg perigee
98.3994°
Mean anomaly
261.7376°
Rev number
16,849

§ Raw data

ONEWEB-05401 54645U 22166D   26145.21048962  .00000020  00000+0  17659-4 0  99942 54645  87.9252 248.5733 0002078  98.3994 261.7376 13.21825642168494

JSON: /api/v1/satellites/54645 · /tle

For live sub-satellite position, see the globe view (requires WebGL).

§ Visibility from observer

Set your observer location to see the next 7 days of passes ≥ 10°. The values pass through the URL so the page stays shareable.

No JS? Fill the form by hand. The geolocation button needs JavaScript.